McCall, ID

12:29 AM MDT on March 30, 2017 (GMT -0600)
McCall

Weather History for KMYL - May, 2012

Change the Weather History Date:

Monday, May 28, 2012

  Actual Average Record
Temperature  
Mean Temperature 44 °F 49 °F  
Max Temperature 59 °F 62 °F 83 °F (2003)
Min Temperature 29 °F 35 °F 24 °F (1991)
Degree Days  
Heating Degree Days 21 16  
Month to date heating degree days 503 546  
Since 1 July heating degree days 8291 9181  
Cooling Degree Days 0 0  
Month to date cooling degree days 0 0  
Year to date cooling degree days 0 0  
Moisture  
Dew Point 35 °F    
Average Humidity 72    
Maximum Humidity 100    
Minimum Humidity 43    
Precipitation  
Precipitation T in 0.07 in 0.79 in (2004)
Month to date precipitation 1.39 1.98  
Year to date precipitation 16.86 9.57  
Sea Level Pressure  
Sea Level Pressure 30.06 in    
Wind  
Wind Speed 3 mph (South)    
Max Wind Speed 10 mph    
Max Gust Speed 14 mph    
Visibility 8 miles    
Events Fog    
T = Trace of Precipitation, MM = Missing Value Source: NWS Daily Summary

Daily Weather History Graph

Daily Weather History Graph

Search for Another Location

Airport or City:

Trip Planner

Search our weather history database for the weather conditions in past years. The results will help you decide how hot, cold, wet, or windy it might be!

Date:

Astronomy

May. 28, 2012 Rise Set
Actual Time 6:03 AM MDT 9:20 PM MDT
Civil Twilight 5:27 AM MDT 9:56 PM MDT
Nautical Twilight 4:41 AM MDT 10:43 PM MDT
Astronomical Twilight 3:43 AM MDT 11:41 PM MDT
Moon 1:32 PM MDT (5/28) 1:47 AM MDT (5/28)
Length of Visible Light 16h 28m
Length of Day
15h 17m
Waxing Crescent, 49% of the Moon is Illuminated
May 28
Waxing Crescent
May 28
First Quarter
Jun 4
Full
Jun 11
Last Quarter
Jun 19
New

Hourly Weather History & Observations

Time (MDT) Temp. Windchill Dew Point Humidity Pressure Visibility Wind Dir Wind Speed Gust Speed Precip Events Conditions
12:51 AM 37.0 °F - 35.1 °F 93% 30.05 in 10.0 mi Calm Calm - N/A   Clear
1:51 AM 36.0 °F - 35.1 °F 97% 30.06 in 10.0 mi Calm Calm - N/A   Clear
2:51 AM 34.0 °F - 33.1 °F 96% 30.07 in 10.0 mi Calm Calm - N/A   Clear
3:49 AM 32.0 °F - 30.2 °F 93% 30.06 in 9.0 mi Calm Calm - N/A   Partly Cloudy
3:51 AM 32.0 °F - 30.0 °F 92% 30.08 in 5.0 mi Calm Calm - N/A   Scattered Clouds
3:56 AM 32.0 °F - 30.2 °F 93% 30.06 in 2.0 mi Calm Calm - N/A   Mostly Cloudy
4:08 AM 33.8 °F - 32.0 °F 93% 30.06 in 4.0 mi Calm Calm - N/A   Mostly Cloudy
4:29 AM 32.0 °F 28.7 °F 30.2 °F 93% 30.06 in 10.0 mi ENE 3.5 mph - N/A   Scattered Clouds
4:51 AM 32.0 °F - 30.9 °F 96% 30.09 in 10.0 mi Calm Calm - N/A   Clear
5:51 AM 30.0 °F - 28.0 °F 92% 30.10 in 10.0 mi Calm Calm - N/A   Clear
6:14 AM 28.4 °F 24.6 °F 28.4 °F 100% 30.07 in 0.8 mi SW 3.5 mph - N/A   Mist
6:51 AM 30.9 °F - 30.9 °F 100% 30.09 in 0.2 mi Calm Calm - N/A Fog Light Freezing Fog
7:51 AM 33.1 °F - 33.1 °F 100% 30.09 in 0.2 mi Calm Calm - N/A Fog Fog
8:51 AM 37.0 °F - 37.0 °F 100% 30.09 in 0.2 mi Calm Calm - N/A Fog Fog
9:20 AM 37.4 °F 34.9 °F 37.4 °F 100% 30.08 in 1.2 mi South 3.5 mph - N/A   Overcast
9:33 AM 37.4 °F 34.9 °F 37.4 °F 100% 30.08 in 1.0 mi South 3.5 mph - N/A   Overcast
9:37 AM 39.2 °F 37.0 °F 39.2 °F 100% 30.08 in 2.5 mi South 3.5 mph - N/A   Overcast
9:43 AM 39.2 °F 37.0 °F 37.4 °F 93% 30.08 in 8.0 mi South 3.5 mph - N/A   Overcast
9:51 AM 39.9 °F 36.7 °F 39.0 °F 97% 30.09 in 10.0 mi South 4.6 mph - N/A   Overcast
10:12 AM 42.8 °F - 39.2 °F 87% 30.08 in 10.0 mi Calm Calm - N/A   Scattered Clouds
10:51 AM 45.0 °F 42.6 °F 39.9 °F 82% 30.07 in 10.0 mi Variable 4.6 mph - N/A   Scattered Clouds
11:51 AM 52.0 °F - 39.9 °F 63% 30.05 in 10.0 mi South 8.1 mph - N/A   Mostly Cloudy
12:51 PM 53.1 °F - 35.1 °F 50% 30.05 in 10.0 mi South 8.1 mph - N/A   Mostly Cloudy
1:51 PM 54.0 °F - 33.1 °F 45% 30.04 in 10.0 mi ESE 3.5 mph - N/A   Overcast
2:51 PM 55.9 °F - 35.1 °F 45% 30.04 in 10.0 mi West 5.8 mph - N/A   Overcast
3:51 PM 54.0 °F - 37.9 °F 55% 30.06 in 10.0 mi SE 10.4 mph - N/A   Overcast
4:51 PM 55.0 °F - 39.9 °F 57% 30.05 in 10.0 mi NE 5.8 mph - 0.00 in   Overcast
5:51 PM 55.9 °F - 35.1 °F 45% 30.04 in 10.0 mi SSE 4.6 mph - N/A   Overcast
6:51 PM 55.9 °F - 37.0 °F 49% 30.03 in 10.0 mi NW 4.6 mph - N/A   Overcast
7:51 PM 57.9 °F - 35.1 °F 42% 30.00 in 10.0 mi Calm Calm - N/A   Scattered Clouds
8:51 PM 55.0 °F - 37.0 °F 51% 30.00 in 10.0 mi Calm Calm - N/A   Clear
9:51 PM 48.0 °F - 39.9 °F 74% 30.01 in 10.0 mi Calm Calm - N/A   Scattered Clouds
10:51 PM 46.9 °F - 37.0 °F 68% 30.00 in 10.0 mi North 4.6 mph - N/A   Clear
11:51 PM 46.0 °F 43.9 °F 35.1 °F 66% 29.98 in 10.0 mi NNW 4.6 mph - N/A   Mostly Cloudy